Weather in Staroye Melkovo

Russia / Tver Oblast     56°39′17″N   36°26′24″E
temp.,
°C
wind,
m/s
gust,
m/s
humid.,
%
clouds,
%
prec.,
mm/h
press.,
hPa
HPBL,
m
17 may, tue
tue1700:00+6wnw61295100 3.4 10051162
03:00+6nw51095100 6.9 1004980
06:00+6nw51197100 2.9 1004767
09:00+7nnw51195100 4.3 1005747
12:00+9nnw5992100 0.4 1005858
15:00+9nnw5989100 0.6 1006999
18:00+11nnw598285 0.3 10061108
21:00+7nw369278 0.9 1007118
18 may, wed
wed1800:00+5n3109452 0.1 1009254
03:00+3nnw389662 0.1 1011180
06:00+4nnw38935 0.0 1013277
09:00+9nnw47698 0.0 1014869
12:00+13nnw5748100 0.0 10141914
15:00+11nnw6862100 0.1 10151622
18:00+10nnw4959100 0.1 10151694
21:00+6wnw237747 0.1 101643
19 may, thu
thu1900:00+6wsw2676100 0.0 1015160
03:00+6w41081100 0.0 1014312
06:00+6wnw41184100 0.1 1015601
09:00+7nw4892100 0.9 10151041
12:00+10nnw476173 0.5 10161564
15:00+13nw4838100 0.6 10162485
18:00+12nne474999 0.0 10162074
21:00+6ssw117375 0.0 101810
20 may, fri
fri2000:00+4wsw118260 0.0 101910
03:00+3ne2584100 0.0 1020113
06:00+4ne2571100 0.0 1020173
09:00+8ne23525 0.0 1020806
12:00+13n1144100 0.0 10191523
15:00+14nne0141100 0.0 10161803
18:00+13ene1244100 0.0 10151685
21:00+7e3672100 0.0 1014135
21 may, sat
sat2100:00+7e31068100 0.0 1012314
03:00+6e377098 0.0 1011245
06:00+6e3771100 0.0 1010268
09:00+11e46545 0.0 1010779
12:00+14e444148 0.0 10092065
15:00+15ene4436100 0.0 10082337
18:00+14ene354697 0.0 10081254
21:00+9e31066100 0.0 1008364